| time (UTC) | temp F | wind direction | speed MPH | gust MPH | rain 1hr in | rain 24hr in | rain mn in | humidity % | barometer mb |
| 20260505083003 | 59 | 42 | 1.0 | 6.0 | 0.00 | 0.00 | 0.00 | 60 | 1015.4 |
| 20260505082503 | 59 | 22 | 0.0 | 1.0 | 0.00 | 0.00 | 0.00 | 59 | 1015.2 |
| 20260505082003 | 59 | 10 | 0.0 | 4.0 | 0.00 | 0.00 | 0.00 | 58 | 1015.2 |
| 20260505081503 | 60 | 4 | 1.0 | 4.0 | 0.00 | 0.00 | 0.00 | 56 | 1015.3 |
| 20260505081003 | 60 | 320 | 1.0 | 4.0 | 0.00 | 0.00 | 0.00 | 56 | 1015.4 |
| 20260505080503 | 60 | 301 | 1.0 | 8.0 | 0.00 | 0.00 | 0.00 | 55 | 1015.3 |
| 20260505080003 | 60 | 303 | 2.0 | 8.0 | 0.00 | 0.00 | 0.00 | 57 | 1015.3 |
| 20260505075003 | 60 | 317 | 1.0 | 6.0 | 0.00 | 0.00 | 0.00 | 57 | 1015.0 |
| 20260505074503 | 60 | 293 | 1.0 | 6.0 | 0.00 | 0.00 | 0.00 | 56 | 1015.0 |
| 20260505074003 | 60 | 279 | 1.0 | 6.0 | 0.00 | 0.00 | 0.00 | 57 | 1015.0 |
| 20260505073003 | 60 | 334 | 1.0 | 7.0 | 0.00 | 0.00 | 0.00 | 57 | 1015.0 |
| 20260505072503 | 60 | 320 | 1.0 | 7.0 | 0.00 | 0.00 | 0.00 | 57 | 1015.1 |
| 20260505072004 | 60 | 258 | 1.0 | 3.0 | 0.00 | 0.00 | 0.00 | 60 | 1015.3 |
| 20260505071003 | 60 | 239 | 1.0 | 3.0 | 0.00 | 0.00 | 0.00 | 59 | 1015.3 |
| 20260505070003 | 60 | 335 | 1.0 | 3.0 | 0.00 | 0.00 | 0.00 | 59 | 1015.3 |
| 20260505065502 | 60 | 357 | 1.0 | 7.0 | 0.00 | 0.00 | 0.00 | 60 | 1015.3 |
| 20260505064003 | 59 | 289 | 1.0 | 3.0 | 0.00 | 0.00 | 0.00 | 60 | 1015.6 |
| 20260505063503 | 59 | 258 | 1.0 | 3.0 | 0.00 | 0.00 | 0.00 | 60 | 1015.5 |
| 20260505063003 | 58 | 248 | 1.0 | 1.0 | 0.00 | 0.00 | 0.00 | 62 | 1015.7 |
| 20260505062503 | 58 | 272 | 0.0 | 1.0 | 0.00 | 0.00 | 0.00 | 63 | 1015.7 |
| 20260505062003 | 58 | 286 | 0.0 | 3.0 | 0.00 | 0.00 | 0.00 | 66 | 1015.7 |
| 20260505061503 | 58 | 303 | 0.0 | 3.0 | 0.00 | 0.00 | 0.00 | 65 | 1015.7 |
| 20260505061003 | 57 | 317 | 0.0 | 3.0 | 0.00 | 0.00 | 0.00 | 66 | 1015.7 |
| 20260505060503 | 57 | 311 | 0.0 | 1.0 | 0.00 | 0.00 | 0.00 | 69 | 1015.7 |
| 20260505060004 | 58 | 312 | 1.0 | 3.0 | 0.00 | 0.00 | 0.00 | 67 | 1015.9 |
| 20260505055503 | 58 | 312 | 0.0 | 3.0 | 0.00 | 0.00 | 0.00 | 69 | 1015.7 |
| 20260505055003 | 58 | 312 | 0.0 | 1.0 | 0.00 | 0.00 | 0.00 | 67 | 1015.8 |
| 20260505054503 | 58 | 312 | 0.0 | 1.0 | 0.00 | 0.00 | 0.00 | 69 | 1015.8 |
| 20260505054004 | 58 | 318 | 0.0 | 3.0 | 0.00 | 0.00 | 0.00 | 67 | 1015.6 |
| 20260505053503 | 58 | 331 | 1.0 | 3.0 | 0.00 | 0.00 | 0.00 | 66 | 1015.6 |
| 20260505053003 | 58 | 346 | 0.0 | 3.0 | 0.00 | 0.00 | 0.00 | 68 | 1015.7 |
| 20260505051003 | 58 | 1 | 0.0 | 3.0 | 0.00 | 0.00 | 0.00 | 68 | 1015.8 |
| 20260505050503 | 58 | 1 | 0.0 | 3.0 | 0.00 | 0.00 | 0.00 | 67 | 1015.8 |
| 20260505041504 | 59 | 1 | 1.0 | 3.0 | 0.00 | 0.00 | 0.00 | 64 | 1015.9 |
| 20260505041004 | 59 | 1 | 0.0 | 3.0 | 0.00 | 0.00 | 0.00 | 65 | 1015.9 |
| 20260505040503 | 58 | 1 | 0.0 | 1.0 | 0.00 | 0.00 | 0.00 | 65 | 1015.9 |
| 20260505035504 | 58 | 1 | 0.0 | 3.0 | 0.00 | 0.00 | 0.00 | 68 | 1015.8 |
| 20260505035004 | 58 | 1 | 1.0 | 3.0 | 0.00 | 0.00 | 0.00 | 68 | 1015.8 |
| 20260505034504 | 58 | 1 | 0.0 | 3.0 | 0.00 | 0.00 | 0.00 | 70 | 1015.9 |
| 20260505034004 | 57 | 1 | 0.0 | 3.0 | 0.00 | 0.00 | 0.00 | 70 | 1015.9 |
| 20260505033504 | 57 | 1 | 0.0 | 1.0 | 0.00 | 0.00 | 0.00 | 71 | 1016.1 |
| 20260505032504 | 57 | 1 | 0.0 | 1.0 | 0.00 | 0.00 | 0.00 | 71 | 1016.2 |
| 20260505032003 | 57 | 1 | 0.0 | 1.0 | 0.00 | 0.00 | 0.00 | 71 | 1016.2 |
| 20260505031503 | 57 | 1 | 0.0 | 1.0 | 0.00 | 0.00 | 0.00 | 70 | 1016.2 |
| 20260505031003 | 58 | 1 | 0.0 | 1.0 | 0.00 | 0.00 | 0.00 | 71 | 1016.2 |
| 20260505030503 | 58 | 1 | 0.0 | 1.0 | 0.00 | 0.00 | 0.00 | 70 | 1016.1 |
| 20260505025504 | 58 | 1 | 0.0 | 1.0 | 0.00 | 0.00 | 0.00 | 69 | 1016.2 |
| 20260505025004 | 58 | 1 | 0.0 | 1.0 | 0.00 | 0.00 | 0.00 | 69 | 1016.2 |
| 20260505024503 | 58 | 1 | 0.0 | 1.0 | 0.00 | 0.00 | 0.00 | 68 | 1016.1 |
| 20260505024004 | 59 | 1 | 0.0 | 1.0 | 0.00 | 0.00 | 0.00 | 67 | 1016.1 |
| 20260505022503 | 59 | 0 | 0.0 | 0.0 | 0.00 | 0.00 | 0.00 | 65 | 1016.1 |
| 20260505021504 | 60 | 0 | 0.0 | 0.0 | 0.00 | 0.00 | 0.00 | 64 | 1016.1 |
| 20260505021003 | 60 | 1 | 0.0 | 1.0 | 0.00 | 0.00 | 0.00 | 64 | 1016.1 |
| 20260505020503 | 60 | 1 | 0.0 | 1.0 | 0.00 | 0.00 | 0.00 | 63 | 1015.9 |
| 20260505020004 | 60 | 1 | 0.0 | 1.0 | 0.00 | 0.00 | 0.00 | 63 | 1015.9 |
| 20260505015503 | 61 | 1 | 0.0 | 1.0 | 0.00 | 0.00 | 0.00 | 63 | 1015.9 |
| 20260505015003 | 61 | 1 | 0.0 | 1.0 | 0.00 | 0.00 | 0.00 | 62 | 1015.8 |
| 20260505014504 | 61 | 1 | 0.0 | 1.0 | 0.00 | 0.00 | 0.00 | 61 | 1015.7 |
| 20260505014004 | 61 | 1 | 0.0 | 1.0 | 0.00 | 0.00 | 0.00 | 61 | 1015.7 |
| 20260505013503 | 62 | 1 | 0.0 | 1.0 | 0.00 | 0.00 | 0.00 | 61 | 1015.7 |
| 20260505013003 | 62 | 1 | 0.0 | 1.0 | 0.00 | 0.00 | 0.00 | 59 | 1015.6 |
| 20260505012503 | 62 | 1 | 0.0 | 3.0 | 0.00 | 0.00 | 0.00 | 58 | 1015.5 |
| 20260505012003 | 62 | 1 | 0.0 | 3.0 | 0.00 | 0.00 | 0.00 | 57 | 1015.5 |
| 20260505011503 | 62 | 4 | 0.0 | 3.0 | 0.00 | 0.00 | 0.00 | 58 | 1015.4 |
| 20260505011003 | 62 | 10 | 0.0 | 3.0 | 0.00 | 0.00 | 0.00 | 58 | 1015.5 |
| 20260505010003 | 62 | 17 | 0.0 | 1.0 | 0.00 | 0.00 | 0.00 | 57 | 1015.3 |
| 20260505005503 | 62 | 21 | 1.0 | 3.0 | 0.00 | 0.00 | 0.00 | 57 | 1015.3 |
| 20260505005004 | 63 | 26 | 0.0 | 3.0 | 0.00 | 0.00 | 0.00 | 58 | 1015.3 |
| 20260505004504 | 63 | 26 | 0.0 | 3.0 | 0.00 | 0.00 | 0.00 | 58 | 1015.2 |
| 20260505003504 | 63 | 26 | 0.0 | 1.0 | 0.00 | 0.00 | 0.00 | 57 | 1015.1 |
| 20260505003004 | 64 | 29 | 1.0 | 6.0 | 0.00 | 0.00 | 0.00 | 56 | 1015.0 |
| 20260505002504 | 64 | 25 | 1.0 | 7.0 | 0.00 | 0.00 | 0.00 | 55 | 1014.9 |
| 20260505002003 | 64 | 10 | 0.0 | 7.0 | 0.00 | 0.00 | 0.00 | 55 | 1014.9 |
| 20260505001503 | 64 | 2 | 0.0 | 3.0 | 0.00 | 0.00 | 0.00 | 56 | 1015.2 |
| 20260505001004 | 65 | 19 | 0.0 | 3.0 | 0.00 | 0.00 | 0.00 | 55 | 1015.2 |
| 20260505000504 | 65 | 5 | 0.0 | 3.0 | 0.00 | 0.00 | 0.00 | 54 | 1015.0 |
| 20260505000004 | 65 | 341 | 0.0 | 3.0 | 0.00 | 0.00 | 0.00 | 52 | 1014.9 |
| 20260504235504 | 66 | 340 | 1.0 | 4.0 | 0.00 | 0.00 | 0.00 | 52 | 1015.0 |
| 20260504235004 | 66 | 8 | 1.0 | 7.0 | 0.00 | 0.00 | 0.00 | 51 | 1014.8 |
| 20260504234503 | 66 | 10 | 1.0 | 7.0 | 0.00 | 0.00 | 0.00 | 51 | 1014.7 |
| 20260504233504 | 66 | 359 | 3.0 | 7.0 | 0.00 | 0.00 | 0.00 | 50 | 1014.7 |
| 20260504233004 | 67 | 357 | 2.0 | 7.0 | 0.00 | 0.00 | 0.00 | 50 | 1014.7 |
| 20260504232504 | 67 | 357 | 1.0 | 7.0 | 0.00 | 0.00 | 0.00 | 51 | 1014.7 |
| 20260504231504 | 68 | 5 | 1.0 | 6.0 | 0.00 | 0.00 | 0.00 | 52 | 1014.6 |
| 20260504231004 | 68 | 22 | 2.0 | 7.0 | 0.00 | 0.00 | 0.00 | 50 | 1014.6 |
| 20260504230504 | 69 | 36 | 2.0 | 7.0 | 0.00 | 0.00 | 0.00 | 51 | 1014.6 |
| 20260504230003 | 69 | 29 | 2.0 | 8.0 | 0.00 | 0.00 | 0.00 | 53 | 1014.5 |
| 20260504225504 | 69 | 9 | 2.0 | 8.0 | 0.00 | 0.00 | 0.00 | 49 | 1014.4 |
| 20260504225004 | 70 | 358 | 2.0 | 10.0 | 0.00 | 0.00 | 0.00 | 49 | 1014.4 |
| 20260504224004 | 70 | 22 | 2.0 | 10.0 | 0.00 | 0.00 | 0.00 | 47 | 1014.5 |
| 20260504223503 | 70 | 343 | 2.0 | 7.0 | 0.00 | 0.00 | 0.00 | 46 | 1014.4 |
| 20260504223003 | 70 | 6 | 3.0 | 13.0 | 0.00 | 0.00 | 0.00 | 46 | 1014.6 |
| 20260504222503 | 70 | 13 | 3.0 | 13.0 | 0.00 | 0.00 | 0.00 | 46 | 1014.5 |
| 20260504222004 | 70 | 16 | 3.0 | 8.0 | 0.00 | 0.00 | 0.00 | 45 | 1014.5 |
| 20260504221503 | 71 | 9 | 3.0 | 8.0 | 0.00 | 0.00 | 0.00 | 46 | 1014.6 |
| 20260504221003 | 71 | 15 | 3.0 | 11.0 | 0.00 | 0.00 | 0.00 | 45 | 1014.6 |
| 20260504220504 | 71 | 17 | 4.0 | 14.0 | 0.00 | 0.00 | 0.00 | 46 | 1014.7 |
| 20260504220003 | 72 | 3 | 3.0 | 14.0 | 0.00 | 0.00 | 0.00 | 43 | 1014.6 |
| 20260504215002 | 72 | 4 | 3.0 | 11.0 | 0.00 | 0.00 | 0.00 | 45 | 1014.6 |
| 20260504214502 | 72 | 10 | 3.0 | 13.0 | 0.00 | 0.00 | 0.00 | 45 | 1014.6 |
| 20260504214002 | 72 | 21 | 4.0 | 13.0 | 0.00 | 0.00 | 0.00 | 46 | 1014.6 |
| 20260504213002 | 72 | 351 | 2.0 | 8.0 | 0.00 | 0.00 | 0.00 | 42 | 1014.5 |
| 20260504212502 | 72 | 15 | 2.0 | 11.0 | 0.00 | 0.00 | 0.00 | 44 | 1014.5 |
| 20260504212002 | 72 | 8 | 3.0 | 11.0 | 0.00 | 0.00 | 0.00 | 43 | 1014.6 |
| 20260504211502 | 72 | 344 | 3.0 | 11.0 | 0.00 | 0.00 | 0.00 | 43 | 1014.7 |
| 20260504211002 | 73 | 330 | 2.0 | 7.0 | 0.00 | 0.00 | 0.00 | 43 | 1014.6 |
| 20260504210502 | 73 | 345 | 2.0 | 7.0 | 0.00 | 0.00 | 0.00 | 43 | 1014.6 |
| 20260504210002 | 73 | 353 | 2.0 | 7.0 | 0.00 | 0.00 | 0.00 | 42 | 1014.6 |
| 20260504205502 | 73 | 12 | 2.0 | 7.0 | 0.00 | 0.00 | 0.00 | 40 | 1014.6 |
| 20260504204502 | 73 | 19 | 3.0 | 8.0 | 0.00 | 0.00 | 0.00 | 40 | 1014.7 |
| 20260504204002 | 73 | 25 | 2.0 | 8.0 | 0.00 | 0.00 | 0.00 | 38 | 1014.8 |
| 20260504203502 | 73 | 21 | 2.0 | 8.0 | 0.00 | 0.00 | 0.00 | 39 | 1014.8 |
| 20260504203001 | 73 | 17 | 2.0 | 8.0 | 0.00 | 0.00 | 0.00 | 38 | 1014.7 |
| 20260504202502 | 72 | 21 | 2.0 | 10.0 | 0.00 | 0.00 | 0.00 | 39 | 1014.8 |
| 20260504201502 | 72 | 22 | 2.0 | 11.0 | 0.00 | 0.00 | 0.00 | 40 | 1015.0 |
| 20260504200502 | 71 | 20 | 2.0 | 7.0 | 0.00 | 0.00 | 0.00 | 39 | 1015.1 |
| 20260504200002 | 71 | 23 | 3.0 | 11.0 | 0.00 | 0.00 | 0.00 | 38 | 1015.2 |
| 20260504195502 | 71 | 28 | 3.0 | 11.0 | 0.00 | 0.00 | 0.00 | 37 | 1015.1 |
| 20260504195002 | 71 | 18 | 2.0 | 8.0 | 0.00 | 0.00 | 0.00 | 38 | 1015.3 |
| 20260504194503 | 71 | 10 | 2.0 | 7.0 | 0.00 | 0.00 | 0.00 | 39 | 1015.3 |
| 20260504194003 | 71 | 9 | 2.0 | 7.0 | 0.00 | 0.00 | 0.00 | 38 | 1015.4 |
| 20260504193502 | 72 | 24 | 2.0 | 8.0 | 0.00 | 0.00 | 0.00 | 39 | 1015.4 |
| 20260504193002 | 72 | 29 | 2.0 | 8.0 | 0.00 | 0.00 | 0.00 | 40 | 1015.4 |
| 20260504191503 | 72 | 23 | 3.0 | 10.0 | 0.00 | 0.00 | 0.00 | 38 | 1015.6 |
| 20260504191002 | 72 | 23 | 3.0 | 8.0 | 0.00 | 0.00 | 0.00 | 38 | 1015.6 |
| 20260504190502 | 72 | 17 | 3.0 | 8.0 | 0.00 | 0.00 | 0.00 | 39 | 1015.7 |
| 20260504190003 | 72 | 3 | 2.0 | 7.0 | 0.00 | 0.00 | 0.00 | 39 | 1015.7 |
| 20260504185502 | 72 | 348 | 2.0 | 6.0 | 0.00 | 0.00 | 0.00 | 39 | 1015.8 |
| 20260504185002 | 72 | 333 | 2.0 | 6.0 | 0.00 | 0.00 | 0.00 | 38 | 1015.9 |
| 20260504184502 | 73 | 15 | 3.0 | 7.0 | 0.00 | 0.00 | 0.00 | 37 | 1015.9 |
| 20260504184002 | 73 | 28 | 3.0 | 7.0 | 0.00 | 0.00 | 0.00 | 39 | 1015.9 |
| 20260504183502 | 73 | 18 | 2.0 | 7.0 | 0.00 | 0.00 | 0.00 | 38 | 1016.0 |
| 20260504183003 | 73 | 18 | 2.0 | 7.0 | 0.00 | 0.00 | 0.00 | 37 | 1016.0 |
| 20260504182502 | 73 | 17 | 2.0 | 7.0 | 0.00 | 0.00 | 0.00 | 34 | 1016.0 |
| 20260504182003 | 73 | 317 | 1.0 | 6.0 | 0.00 | 0.00 | 0.00 | 35 | 1016.0 |
| 20260504181503 | 73 | 18 | 2.0 | 6.0 | 0.00 | 0.00 | 0.00 | 32 | 1016.0 |
| 20260504181002 | 73 | 24 | 3.0 | 7.0 | 0.00 | 0.00 | 0.00 | 34 | 1016.2 |
| 20260504175502 | 73 | 123 | 1.0 | 6.0 | 0.00 | 0.00 | 0.00 | 36 | 1016.2 |
| 20260504175002 | 73 | 169 | 1.0 | 3.0 | 0.00 | 0.00 | 0.00 | 36 | 1016.3 |
| 20260504174503 | 72 | 178 | 2.0 | 6.0 | 0.00 | 0.00 | 0.00 | 34 | 1016.3 |
| 20260504174002 | 72 | 181 | 2.0 | 6.0 | 0.00 | 0.00 | 0.00 | 32 | 1016.4 |
| 20260504173502 | 72 | 110 | 1.0 | 4.0 | 0.00 | 0.00 | 0.00 | 34 | 1016.5 |
| 20260504172502 | 71 | 165 | 1.0 | 4.0 | 0.00 | 0.00 | 0.00 | 37 | 1016.5 |
| 20260504172002 | 71 | 184 | 1.0 | 4.0 | 0.00 | 0.00 | 0.00 | 35 | 1016.6 |
| 20260504171503 | 70 | 22 | 1.0 | 3.0 | 0.00 | 0.00 | 0.00 | 36 | 1016.7 |
| 20260504171003 | 70 | 26 | 1.0 | 3.0 | 0.00 | 0.00 | 0.00 | 37 | 1016.8 |
| 20260504170503 | 70 | 12 | 0.0 | 3.0 | 0.00 | 0.00 | 0.00 | 37 | 1016.8 |
| 20260504150503 | 60 | 170 | 3.0 | 8.0 | 0.00 | 0.00 | 0.00 | 52 | 1018.3 |
| 20260504141002 | 55 | 190 | 1.0 | 6.0 | 0.00 | 0.00 | 0.00 | 67 | 1018.3 |
| 20260504140502 | 55 | 197 | 1.0 | 6.0 | 0.00 | 0.00 | 0.00 | 69 | 1018.3 |
| 20260504130503 | 50 | 104 | 0.0 | 3.0 | 0.00 | 0.00 | 0.00 | 73 | 1018.1 |
| 20260504110503 | 42 | 0 | 0.0 | 0.0 | 0.00 | 0.00 | 0.00 | 85 | 1017.4 |
| 20260504100502 | 42 | 16 | 0.0 | 1.0 | 0.00 | 0.00 | 0.00 | 87 | 1017.2 |